User: anonymous   Login
Location: Unspecified
(0.0000°N, 0.0000°E)
Time: 21:24:48
(UTC+00:00)
Language:

COMSATBw-2 - Orbit

View from above orbital plane
View from above orbital plane
View from above satellite
View from above satellite

Ground track
Ground track

The orbit data is extracted from the following two-line orbital elements,

1 36582U 10021B   18198.19910441  .00000067  00000-0  00000+0 0  9996
2 36582   0.0157 357.3439 0001954 118.7124 263.7509  1.00269386 29992
Epoch (UTC): 17 July 2018 04:46:42
Eccentricity: 0.0001954
inclination: 0.0157°
perigee height: 35778 km
apogee height: 35795 km
right ascension of ascending node: 357.3439°
argument of perigee: 118.7124°
revolutions per day: 1.00269386
mean anomaly at epoch: 263.7509°
orbit number at epoch: 2999

The dashed part of the orbit path shows where the satellite is in the earth's shadow,  

DLR